INTELSAT 33E DEB, 62003

Orbit data source: Space-Track

INTELSAT 33E DEB, 62003 is space debris in GEO originally from a launch on Wed, 24 Aug 2016 UTC launched from the French Guiana (FRGUI). Debris objects in space refer to the collection of defunct objects orbiting the Earth. Examples of debris include non-operational satellites, rocket bodies, and fragments generated from explosions, collisions, or faulty payload assembly.

Not visible in the next 10 days
Identifier
62003, 2016-053V
Orbit
GEO
Country
Flag of USUS / ITSO
Related business
Manufacturer
Boeing/ES
Mission
Spacecraft
Bus & Motor
Unknown
Mass
Unknown
Launch date (UTC)
2016-08-24 (10 years ago)
Launch vehicle
Unknown
Launch site
French Guiana (FRGUI)
Object type
Payload
Rocket body
Debris
Shape & HBR
Unknown shape, 1.1 m
Radar Cross Section
RCS unknown

Expand to show TLE details & history
Last TLE update: 1 day ago

TLE from 1 day ago
0 INTELSAT 33E DEB
1 62003U 16053V   26254.99387658 -.00000331  00000-0  00000-0 0  9998
2 62003   1.8439  86.0442 0009434 209.7133 151.0560  1.00448082  6952
Epoch: 2026-09-11T23:51Z
TLE epoch observation values (Epoch: 2026-09-11T23:51:10.936Z)
Latitude
Longitude
98.05863°
Altitude
35,771.359 km
Speed
3.074 km/s
True Right ascension
05h 47m 27s
True Declination
0° 00' 00"
Sunlit
Object was in daylight at epoch
Visualization orbit readout
Latitude
Unknown
Longitude
Unknown
Altitude
Unknown
Speed
Unknown
Apparent Right ascension
Unknown
Apparent Declination
Unknown
Sunlit
N/A
Visualization observer readout
Local Sidereal Time
22:10:26
Azimuth
Unknown
Elevation
Unknown
Doppler factor
Unknown
Orbital elements
Apogee altitude
35,778.047 km
Perigee altitude
35,698.582 km
Semi-major axis
42,116.452 km
Eccentricity
0.00094
Inclination
1.8439°
RAAN
86.0442°
Arg. of periapsis
209.7133°
True anomaly
151.10826°
Mean anomaly
151.056°
Eccentric anomaly
151.08214°
Mean motion
0.25111 °/min
Orbital period
1,433.63 mins
BSTAR
0
Loading maneuver chart data...
Computing Atmospheric mass density...
Loading historical data...
Loading historical data...
Loading historical data...
Loading historical data...
Loading historical data...
Loading historical data...
Loading historical data...

Documentation

Showing up to 5 results
|